User: anonymous   Login
Location: Unspecified
(0.0000°N, 0.0000°E)
Time: 19:07:32
(UTC+00:00)
Language:

ONEWEB-0135 - Orbit

View from above orbital plane
View from above orbital plane
View from above satellite
View from above satellite

Ground track
Ground track

The orbit is defined by the following mean orbital elements,

1 47281U          26145.53048787 +.00000000 +00000-0 -11805-2 0 00003
2 47281  87.8951 355.1758 0001552  79.1774 280.9529 13.12442266    00
Epoch (UTC): 25 May 2026 12:43:54
Eccentricity: 0.0001552
inclination: 87.8951°
perigee height: 1213 km
apogee height: 1215 km
right ascension of ascending node: 355.1758°
argument of perigee: 79.1774°
revolutions per day: 13.12442266
mean anomaly at epoch: 280.9529°

The dashed part of the orbit path shows where the satellite is in the earth's shadow,  

DLR